TimeCST,TemperatureF,Dew PointF,Humidity,Sea Level PressureIn,VisibilityMPH,Wind Direction,Wind SpeedMPH,Gust SpeedMPH,PrecipitationIn,Events,Conditions,WindDirDegrees,DateUTC
12:01 AM,42.8,39.2,87,30.11,5.0,Calm,Calm,-,N/A,,Overcast,0,2012-11-06 06:01:00
12:46 AM,42.8,37.4,81,30.08,5.0,SSW,4.6,-,N/A,,Overcast,200,2012-11-06 06:46:00
12:53 AM,42.1,39.0,89,30.09,4.0,SSW,4.6,-,N/A,,Overcast,210,2012-11-06 06:53:00
1:53 AM,41.0,39.0,93,30.08,3.0,South,3.5,-,N/A,,Overcast,170,2012-11-06 07:53:00
2:38 AM,41.0,39.2,93,30.07,3.0,SSW,4.6,-,N/A,,Overcast,210,2012-11-06 08:38:00
2:53 AM,41.0,39.0,93,30.08,4.0,South,4.6,-,N/A,,Overcast,190,2012-11-06 08:53:00
3:10 AM,42.8,39.2,87,30.06,4.0,South,4.6,-,N/A,,Overcast,190,2012-11-06 09:10:00
3:53 AM,41.0,39.0,93,30.05,4.0,South,5.8,-,N/A,,Overcast,170,2012-11-06 09:53:00
4:53 AM,41.0,37.9,89,30.05,5.0,SW,5.8,-,0.00,,Overcast,220,2012-11-06 10:53:00
5:53 AM,41.0,37.9,89,30.04,5.0,South,5.8,-,N/A,,Overcast,190,2012-11-06 11:53:00
6:53 AM,42.1,37.9,85,30.02,7.0,SSW,8.1,-,0.01,,Overcast,210,2012-11-06 12:53:00
7:18 AM,42.8,37.4,81,30.01,6.0,SSW,10.4,-,N/A,,Overcast,210,2012-11-06 13:18:00
7:53 AM,42.1,37.9,85,30.02,7.0,SW,10.4,-,N/A,,Mostly Cloudy,220,2012-11-06 13:53:00
8:53 AM,45.0,39.0,80,30.04,8.0,West,12.7,-,N/A,,Mostly Cloudy,260,2012-11-06 14:53:00
9:02 AM,44.6,39.2,81,30.03,9.0,West,12.7,-,N/A,,Overcast,270,2012-11-06 15:02:00
9:53 AM,46.9,39.0,74,30.04,10.0,WNW,13.8,-,N/A,,Overcast,300,2012-11-06 15:53:00
10:11 AM,48.2,39.2,71,30.03,10.0,NW,12.7,19.6,N/A,,Overcast,320,2012-11-06 16:11:00
10:53 AM,50.0,41.0,71,30.03,10.0,NW,15.0,-,N/A,,Scattered Clouds,320,2012-11-06 16:53:00
11:53 AM,55.0,37.9,53,30.00,10.0,NW,12.7,25.3,N/A,,Clear,310,2012-11-06 17:53:00
12:53 PM,57.0,36.0,45,29.99,10.0,NW,23.0,28.8,N/A,,Clear,320,2012-11-06 18:53:00
1:53 PM,57.0,32.0,39,29.99,10.0,NW,24.2,29.9,N/A,,Clear,320,2012-11-06 19:53:00
2:53 PM,57.9,30.9,36,29.99,10.0,NNW,17.3,28.8,N/A,,Clear,340,2012-11-06 20:53:00
3:53 PM,57.0,30.0,36,30.00,10.0,NW,18.4,28.8,N/A,,Clear,320,2012-11-06 21:53:00
4:53 PM,55.0,30.0,38,30.01,10.0,NNW,15.0,-,N/A,,Clear,330,2012-11-06 22:53:00
5:53 PM,50.0,30.0,46,30.03,10.0,NNW,10.4,-,N/A,,Clear,330,2012-11-06 23:53:00
6:53 PM,45.0,30.9,58,30.06,10.0,NNW,4.6,-,N/A,,Clear,330,2012-11-07 00:53:00
7:53 PM,44.1,30.9,60,30.06,10.0,WNW,5.8,-,N/A,,Clear,290,2012-11-07 01:53:00
8:53 PM,43.0,30.0,60,30.07,10.0,Calm,Calm,-,N/A,,Clear,0,2012-11-07 02:53:00
9:53 PM,41.0,30.9,67,30.08,10.0,Calm,Calm,-,N/A,,Clear,0,2012-11-07 03:53:00
10:53 PM,39.0,28.9,67,30.08,10.0,NE,3.5,-,N/A,,Clear,40,2012-11-07 04:53:00
11:53 PM,39.9,30.0,68,30.09,10.0,Calm,Calm,-,N/A,,Clear,0,2012-11-07 05:53:00